Location: Izdebno
(52.6670°N, 16.2170°E)
Time: 15:22:00
(UTC+01:00)

Vanguard 2 - Pass Details

Date: 04 February 2023
Orbit: 553 x 2927 km, 32.9° (Epoch: 24 March)

Event Time Altitude Azimuth Distance (km) Brightness Sun altitude
Rises 00:00:48 0° 249° (WSW) 6,015 - -53.7°
Reaches altitude 10° 00:04:53 10° 241° (WSW) 5,260 - -53.7°
Maximum altitude 00:18:58 37° 183° (S) 3,936 - -53.7°
Drops below altitude 10° 00:33:51 10° 125° (SE) 5,544 - -53.4°
Exits shadow 00:37:20 - 119° (ESE) 6,177 12.0 -53.3°
Sets 00:38:19 0° 118° (ESE) 6,362 12.1 -53.2°
